| time (UTC) | temp F | wind direction | speed MPH | gust MPH | rain 1hr in | rain 24hr in | rain mn in | humidity % | barometer mb |
| 20260502221532 | 52 | 122 | 3.0 | 8.0 | 0.01 | 0.08 | 0.08 | 1 | 1009.0 |
| 20260502220030 | 52 | 130 | 2.0 | 8.0 | 0.01 | 0.08 | 0.08 | 1 | 1009.0 |
| 20260502214522 | 52 | 132 | 4.0 | 8.0 | 0.00 | 0.07 | 0.07 | 1 | 1009.0 |
| 20260502213020 | 52 | 123 | 4.0 | 7.0 | 0.00 | 0.07 | 0.07 | 1 | 1009.0 |
| 20260502211514 | 52 | 131 | 3.0 | 11.0 | 0.00 | 0.07 | 0.07 | 1 | 1009.0 |
| 20260502210009 | 52 | 128 | 6.0 | 9.0 | 0.00 | 0.07 | 0.07 | 1 | 1009.0 |
| 20260502204514 | 52 | 97 | 3.0 | 8.0 | 0.00 | 0.07 | 0.07 | 1 | 1009.0 |
| 20260502203100 | 53 | 132 | 3.0 | 6.0 | 0.00 | 0.07 | 0.07 | 1 | 1009.1 |
| 20260502201559 | 53 | 97 | 3.0 | 8.0 | 0.00 | 0.07 | 0.07 | 1 | 1009.0 |
| 20260502200056 | 52 | 94 | 6.0 | 11.0 | 0.01 | 0.07 | 0.07 | 1 | 1009.1 |
| 20260502194548 | 52 | 121 | 4.0 | 10.0 | 0.01 | 0.07 | 0.07 | 1 | 1009.0 |
| 20260502193046 | 52 | 101 | 8.0 | 12.0 | 0.01 | 0.07 | 0.07 | 1 | 1009.1 |
| 20260502191539 | 52 | 103 | 8.0 | 12.0 | 0.01 | 0.07 | 0.07 | 1 | 1009.1 |
| 20260502190036 | 52 | 104 | 3.0 | 8.0 | 0.00 | 0.06 | 0.06 | 1 | 1009.0 |
| 20260502184536 | 52 | 75 | 3.0 | 9.0 | 0.00 | 0.06 | 0.06 | 1 | 1009.0 |
| 20260502183026 | 52 | 85 | 3.0 | 6.0 | 0.01 | 0.06 | 0.06 | 1 | 1009.1 |
| 20260502181522 | 52 | 66 | 3.0 | 9.0 | 0.03 | 0.06 | 0.06 | 1 | 1009.2 |
| 20260502163100 | 52 | 107 | 4.0 | 9.0 | 0.01 | 0.02 | 0.02 | 1 | 1009.6 |
| 20260502161554 | 52 | 93 | 7.0 | 15.0 | 0.00 | 0.01 | 0.01 | 1 | 1009.6 |
| 20260502151537 | 53 | 121 | 6.0 | 10.0 | 0.00 | 0.01 | 0.01 | 1 | 1010.3 |
| 20260502130107 | 54 | 128 | 4.0 | 10.0 | 0.00 | 0.00 | 0.00 | 1 | 1011.5 |
| 20260502123054 | 54 | 120 | 10.0 | 18.0 | 0.00 | 0.00 | 0.00 | 1 | 1011.9 |
| 20260502121538 | 54 | 127 | 9.0 | 16.0 | 0.00 | 0.00 | 0.00 | 1 | 1012.0 |
| 20260502114530 | 54 | 151 | 8.0 | 14.0 | 0.00 | 0.00 | 0.00 | 1 | 1012.2 |
| 20260502113025 | 54 | 145 | 8.0 | 11.0 | 0.00 | 0.00 | 0.00 | 1 | 1012.3 |
| 20260502111520 | 54 | 127 | 7.0 | 15.0 | 0.00 | 0.00 | 0.00 | 1 | 1012.3 |
| 20260502110016 | 54 | 141 | 9.0 | 16.0 | 0.00 | 0.00 | 0.00 | 1 | 1012.4 |
| 20260502104516 | 54 | 160 | 10.0 | 14.0 | 0.00 | 0.00 | 0.00 | 1 | 1012.4 |
| 20260502103007 | 54 | 175 | 11.0 | 17.0 | 0.00 | 0.00 | 0.00 | 1 | 1012.3 |
| 20260502101503 | 54 | 120 | 5.0 | 13.0 | 0.00 | 0.00 | 0.00 | 1 | 1012.3 |
| 20260502071511 | 52 | 126 | 6.0 | 10.0 | 0.00 | 0.00 | 0.00 | 1 | 1013.1 |
| 20260502070008 | 52 | 116 | 7.0 | 11.0 | 0.00 | 0.00 | 0.00 | 1 | 1013.1 |
| 20260502064509 | 52 | 170 | 8.0 | 13.0 | 0.00 | 0.00 | 0.00 | 1 | 1013.2 |
| 20260502063120 | 52 | 147 | 7.0 | 12.0 | 0.00 | 0.00 | 0.00 | 1 | 1013.2 |
| 20260502061555 | 52 | 155 | 4.0 | 8.0 | 0.00 | 0.00 | 0.00 | 1 | 1013.1 |
| 20260502060050 | 52 | 110 | 2.0 | 8.0 | 0.00 | 0.00 | 0.00 | 1 | 1013.1 |
| 20260502054547 | 52 | 134 | 4.0 | 10.0 | 0.00 | 0.00 | 0.00 | 1 | 1013.0 |
| 20260502053052 | 52 | 145 | 7.0 | 11.0 | 0.00 | 0.00 | 0.00 | 1 | 1013.1 |
| 20260502051537 | 52 | 213 | 5.0 | 8.0 | 0.00 | 0.00 | 0.00 | 1 | 1013.2 |
| 20260502050032 | 52 | 132 | 2.0 | 7.0 | 0.00 | 0.00 | 0.00 | 1 | 1013.3 |
| 20260502044528 | 52 | 143 | 5.0 | 9.0 | 0.00 | 0.01 | 0.00 | 1 | 1013.3 |
| 20260502043024 | 52 | 145 | 4.0 | 10.0 | 0.00 | 0.01 | 0.00 | 1 | 1013.4 |
| 20260502041520 | 52 | 148 | 5.0 | 12.0 | 0.00 | 0.01 | 0.00 | 1 | 1013.4 |
| 20260502040015 | 52 | 173 | 7.0 | 13.0 | 0.00 | 0.01 | 0.00 | 1 | 1013.6 |
| 20260502034511 | 53 | 149 | 6.0 | 10.0 | 0.00 | 0.01 | 0.00 | 1 | 1013.7 |
| 20260502033011 | 53 | 133 | 2.0 | 8.0 | 0.00 | 0.01 | 0.00 | 1 | 1013.8 |
| 20260502031503 | 53 | 178 | 4.0 | 10.0 | 0.00 | 0.01 | 0.00 | 1 | 1013.9 |
| 20260502030058 | 52 | 153 | 4.0 | 9.0 | 0.00 | 0.01 | 0.00 | 1 | 1014.0 |
| 20260502024604 | 53 | 140 | 5.0 | 11.0 | 0.00 | 0.01 | 0.00 | 1 | 1014.1 |
| 20260502023049 | 53 | 134 | 8.0 | 13.0 | 0.00 | 0.01 | 0.00 | 1 | 1014.1 |
| 20260502021545 | 53 | 178 | 3.0 | 9.0 | 0.00 | 0.01 | 0.00 | 1 | 1014.3 |
| 20260502020042 | 53 | 147 | 3.0 | 8.0 | 0.00 | 0.01 | 0.00 | 1 | 1014.4 |
| 20260502014538 | 53 | 142 | 3.0 | 7.0 | 0.00 | 0.01 | 0.00 | 1 | 1014.7 |
| 20260502013034 | 53 | 168 | 3.0 | 8.0 | 0.00 | 0.01 | 0.00 | 1 | 1015.0 |
| 20260502011528 | 53 | 152 | 5.0 | 9.0 | 0.00 | 0.01 | 0.00 | 1 | 1015.1 |
| 20260502010023 | 53 | 137 | 6.0 | 10.0 | 0.00 | 0.01 | 0.00 | 1 | 1015.2 |
| 20260502004519 | 53 | 145 | 6.0 | 10.0 | 0.00 | 0.01 | 0.00 | 1 | 1015.4 |
| 20260502003016 | 53 | 145 | 3.0 | 9.0 | 0.00 | 0.01 | 0.00 | 1 | 1015.6 |
| 20260502001512 | 53 | 151 | 2.0 | 9.0 | 0.00 | 0.01 | 0.00 | 1 | 1015.5 |
| 20260502000007 | 53 | 156 | 6.0 | 10.0 | 0.00 | 0.01 | 0.00 | 1 | 1015.6 |
| 20260501234501 | 53 | 161 | 4.0 | 9.0 | 0.00 | 0.01 | 0.00 | 1 | 1015.7 |
| 20260501233057 | 53 | 175 | 7.0 | 12.0 | 0.00 | 0.01 | 0.00 | 1 | 1015.8 |
| 20260501231615 | 53 | 156 | 4.0 | 8.0 | 0.00 | 0.01 | 0.00 | 1 | 1015.8 |
| 20260501230056 | 53 | 156 | 5.0 | 8.0 | 0.00 | 0.01 | 0.00 | 1 | 1015.8 |
| 20260501224556 | 53 | 176 | 4.0 | 6.0 | 0.00 | 0.01 | 0.01 | 1 | 1016.0 |
| 20260501223046 | 53 | 167 | 5.0 | 10.0 | 0.00 | 0.01 | 0.01 | 1 | 1016.1 |